Location: Devore Heights
(34.2372°N, 117.4156°W)
Time: 03:05:34
(UTC+00:00)

A-11 Canister half - Pass Details

Date: 20 September 2024
Orbit: 1515 x 1684 km, 47.2° (Epoch: 06 October)

Event Time Altitude Azimuth Distance (km) Brightness Sun altitude
Rises 07:00:11 0° 305° (NW) 4,667 12.0 -53.5°
Reaches altitude 10° 07:03:14 10° 307° (NW) 3,678 11.3 -53.7°
Enters shadow 07:05:33 20° 309° (NW) 2,948 10.7 -53.8°
